Time,TemperatureF,DewpointF,PressureIn,WindDirection,WindDirectionDegrees,WindSpeedMPH,WindSpeedGustMPH,Humidity,HourlyPrecipIn,Conditions,Clouds,dailyrainin,SoftwareType,DateUTC
2013-04-17 00:00:00,40.0,33.3,30.36,WSW,248,2.7,2.7,77,0.00,,,0.00,WUHU216HW,2013-04-17 07:00:00,
2013-04-17 00:05:00,40.1,33.5,30.36,WSW,248,1.8,3.1,77,0.00,,,0.00,WUHU216HW,2013-04-17 07:05:00,
2013-04-17 00:10:00,40.1,33.5,30.37,WSW,248,3.4,3.4,77,0.00,,,0.00,WUHU216HW,2013-04-17 07:10:00,
2013-04-17 00:15:00,40.1,33.5,30.36,SW,225,2.2,3.4,77,0.00,,,0.00,WUHU216HW,2013-04-17 07:15:00,
2013-04-17 00:20:00,40.0,33.3,30.37,WSW,248,2.7,3.4,77,0.00,,,0.00,WUHU216HW,2013-04-17 07:20:00,
2013-04-17 00:25:00,40.0,33.7,30.37,WSW,248,2.2,2.7,78,0.00,,,0.00,WUHU216HW,2013-04-17 07:25:00,
2013-04-17 00:30:00,39.8,33.5,30.37,SW,225,2.5,2.7,78,0.00,,,0.00,WUHU216HW,2013-04-17 07:30:00,
2013-04-17 00:35:00,39.8,33.5,30.37,WSW,248,1.8,2.7,78,0.00,,,0.00,WUHU216HW,2013-04-17 07:35:00,
2013-04-17 00:40:00,39.8,33.5,30.37,SW,225,2.2,2.7,78,0.00,,,0.00,WUHU216HW,2013-04-17 07:40:00,
2013-04-17 00:45:00,39.8,33.5,30.37,WSW,248,1.8,2.2,78,0.00,,,0.00,WUHU216HW,2013-04-17 07:45:00,
2013-04-17 00:50:00,39.6,33.3,30.37,WSW,248,1.8,2.5,78,0.00,,,0.00,WUHU216HW,2013-04-17 07:50:00,
2013-04-17 00:55:00,39.6,33.3,30.37,WSW,248,1.1,2.5,78,0.00,,,0.00,WUHU216HW,2013-04-17 07:55:00,
2013-04-17 01:00:00,39.4,33.1,30.37,West,270,0.4,1.8,78,0.00,,,0.00,WUHU216HW,2013-04-17 08:00:00,
2013-04-17 01:05:00,39.4,33.1,30.37,WSW,248,1.3,1.3,78,0.00,,,0.00,WUHU216HW,2013-04-17 08:05:00,
2013-04-17 01:10:00,39.4,33.1,30.37,WSW,248,1.1,1.8,78,0.00,,,0.00,WUHU216HW,2013-04-17 08:10:00,
2013-04-17 01:15:00,39.2,32.9,30.37,WSW,248,1.1,1.8,78,0.00,,,0.00,WUHU216HW,2013-04-17 08:15:00,
2013-04-17 01:20:00,39.2,32.9,30.37,WSW,248,1.8,1.8,78,0.00,,,0.00,WUHU216HW,2013-04-17 08:20:00,
2013-04-17 01:25:00,39.1,33.1,30.37,WSW,248,1.3,1.8,79,0.00,,,0.00,WUHU216HW,2013-04-17 08:25:00,
2013-04-17 01:30:00,38.9,32.9,30.37,WSW,248,1.8,1.8,79,0.00,,,0.00,WUHU216HW,2013-04-17 08:30:00,
2013-04-17 01:35:00,38.7,32.8,30.37,WSW,248,1.8,1.8,79,0.00,,,0.00,WUHU216HW,2013-04-17 08:35:00,
2013-04-17 01:40:00,38.5,32.6,30.37,WSW,248,2.7,2.9,79,0.00,,,0.00,WUHU216HW,2013-04-17 08:40:00,
2013-04-17 01:45:00,38.5,32.6,30.38,WSW,248,2.2,2.9,79,0.00,,,0.00,WUHU216HW,2013-04-17 08:45:00,
2013-04-17 01:50:00,38.5,32.6,30.38,WSW,248,1.3,2.7,79,0.00,,,0.00,WUHU216HW,2013-04-17 08:50:00,
2013-04-17 01:55:00,38.5,32.6,30.38,WSW,248,1.1,2.2,79,0.00,,,0.00,WUHU216HW,2013-04-17 08:55:00,
2013-04-17 02:00:00,38.7,32.8,30.38,WSW,248,0.7,1.6,79,0.00,,,0.00,WUHU216HW,2013-04-17 09:00:00,
2013-04-17 02:05:00,38.5,32.6,30.37,WSW,248,0.9,1.6,79,0.00,,,0.00,WUHU216HW,2013-04-17 09:05:00,
2013-04-17 02:10:00,38.5,32.6,30.38,WSW,248,1.1,1.3,79,0.00,,,0.00,WUHU216HW,2013-04-17 09:10:00,
2013-04-17 02:15:00,38.3,32.4,30.37,WSW,248,1.1,1.3,79,0.00,,,0.00,WUHU216HW,2013-04-17 09:15:00,
2013-04-17 02:20:00,38.2,32.6,30.37,WSW,248,1.6,1.6,80,0.00,,,0.00,WUHU216HW,2013-04-17 09:20:00,
2013-04-17 02:25:00,38.2,32.6,30.37,WSW,248,1.1,1.8,80,0.00,,,0.00,WUHU216HW,2013-04-17 09:25:00,
2013-04-17 02:30:00,38.2,32.6,30.37,WSW,248,1.1,1.8,80,0.00,,,0.00,WUHU216HW,2013-04-17 09:30:00,
2013-04-17 02:35:00,38.2,32.6,30.37,WSW,248,0.9,1.6,80,0.00,,,0.00,WUHU216HW,2013-04-17 09:35:00,
2013-04-17 02:40:00,38.0,32.4,30.37,WSW,248,1.6,1.6,80,0.00,,,0.00,WUHU216HW,2013-04-17 09:40:00,
2013-04-17 02:45:00,37.8,32.2,30.37,WSW,248,1.6,1.6,80,0.00,,,0.00,WUHU216HW,2013-04-17 09:45:00,
2013-04-17 02:50:00,38.0,32.4,30.37,WSW,248,1.8,1.8,80,0.00,,,0.00,WUHU216HW,2013-04-17 09:50:00,
2013-04-17 02:55:00,38.0,32.4,30.37,West,270,1.8,1.8,80,0.00,,,0.00,WUHU216HW,2013-04-17 09:55:00,
2013-04-17 03:00:00,38.0,32.4,30.37,SW,225,2.5,2.5,80,0.00,,,0.00,WUHU216HW,2013-04-17 10:00:00,
2013-04-17 03:05:00,38.2,32.6,30.37,WNW,293,1.3,2.5,80,0.00,,,0.00,WUHU216HW,2013-04-17 10:05:00,
2013-04-17 03:10:00,38.2,32.6,30.37,WSW,248,1.8,2.5,80,0.00,,,0.00,WUHU216HW,2013-04-17 10:10:00,
2013-04-17 03:15:00,38.2,32.6,30.37,WSW,248,2.5,2.9,80,0.00,,,0.00,WUHU216HW,2013-04-17 10:15:00,
2013-04-17 03:20:00,38.0,32.4,30.37,WSW,248,2.0,2.9,80,0.00,,,0.00,WUHU216HW,2013-04-17 10:20:00,
2013-04-17 03:25:00,37.8,32.2,30.37,WSW,248,2.0,2.5,80,0.00,,,0.00,WUHU216HW,2013-04-17 10:25:00,
2013-04-17 03:30:00,37.8,32.5,30.37,West,270,1.6,2.5,81,0.00,,,0.00,WUHU216HW,2013-04-17 10:30:00,
2013-04-17 03:35:00,37.8,32.5,30.37,WSW,248,1.3,2.5,81,0.00,,,0.00,WUHU216HW,2013-04-17 10:35:00,
2013-04-17 03:40:00,38.0,32.7,30.37,SW,225,1.8,2.2,81,0.00,,,0.00,WUHU216HW,2013-04-17 10:40:00,
2013-04-17 03:45:00,38.2,33.1,30.37,SW,225,1.1,3.4,82,0.00,,,0.00,WUHU216HW,2013-04-17 10:45:00,
2013-04-17 03:50:00,38.2,33.1,30.37,SW,225,0.0,3.4,82,0.00,,,0.00,WUHU216HW,2013-04-17 10:50:00,
2013-04-17 03:55:00,38.3,33.3,30.38,SW,225,0.0,1.3,82,0.00,,,0.00,WUHU216HW,2013-04-17 10:55:00,
2013-04-17 04:00:00,38.5,33.5,30.38,SW,225,0.4,0.7,82,0.00,,,0.00,WUHU216HW,2013-04-17 11:00:00,
2013-04-17 04:05:00,38.5,33.5,30.37,WSW,248,0.4,0.7,82,0.00,,,0.00,WUHU216HW,2013-04-17 11:05:00,
2013-04-17 04:10:00,38.5,33.5,30.38,WSW,248,0.4,0.7,82,0.00,,,0.00,WUHU216HW,2013-04-17 11:10:00,
2013-04-17 04:15:00,38.7,33.7,30.37,WSW,248,0.7,1.1,82,0.00,,,0.00,WUHU216HW,2013-04-17 11:15:00,
2013-04-17 04:20:00,38.5,33.5,30.37,WSW,248,0.4,1.1,82,0.00,,,0.00,WUHU216HW,2013-04-17 11:20:00,
2013-04-17 04:25:00,38.7,33.7,30.38,WSW,248,0.0,1.1,82,0.00,,,0.00,WUHU216HW,2013-04-17 11:25:00,
2013-04-17 04:30:00,38.7,33.7,30.38,WSW,248,0.7,1.1,82,0.00,,,0.00,WUHU216HW,2013-04-17 11:30:00,
2013-04-17 04:35:00,38.9,33.8,30.38,WSW,248,0.4,1.1,82,0.00,,,0.00,WUHU216HW,2013-04-17 11:35:00,
2013-04-17 04:40:00,38.9,33.8,30.38,WSW,248,1.3,1.8,82,0.00,,,0.00,WUHU216HW,2013-04-17 11:40:00,
2013-04-17 04:45:00,38.7,33.7,30.38,WSW,248,1.8,1.8,82,0.00,,,0.00,WUHU216HW,2013-04-17 11:45:00,
2013-04-17 04:50:00,38.7,33.7,30.38,WSW,248,0.7,1.8,82,0.00,,,0.00,WUHU216HW,2013-04-17 11:50:00,
2013-04-17 04:55:00,38.5,33.5,30.38,WSW,248,0.2,1.8,82,0.00,,,0.00,WUHU216HW,2013-04-17 11:55:00,
2013-04-17 05:00:00,38.5,33.5,30.38,WSW,248,0.4,0.9,82,0.00,,,0.00,WUHU216HW,2013-04-17 12:00:00,
2013-04-17 05:05:00,38.5,33.9,30.38,WSW,248,0.4,0.7,83,0.00,,,0.00,WUHU216HW,2013-04-17 12:05:00,
2013-04-17 05:10:00,38.5,33.9,30.38,WSW,248,0.4,1.1,83,0.00,,,0.00,WUHU216HW,2013-04-17 12:10:00,
2013-04-17 05:15:00,38.3,33.7,30.38,West,270,0.7,1.1,83,0.00,,,0.00,WUHU216HW,2013-04-17 12:15:00,
2013-04-17 05:20:00,38.3,33.7,30.38,WSW,248,1.6,1.6,83,0.00,,,0.00,WUHU216HW,2013-04-17 12:20:00,
2013-04-17 05:25:00,38.2,33.5,30.38,WSW,248,1.1,1.8,83,0.00,,,0.00,WUHU216HW,2013-04-17 12:25:00,
2013-04-17 05:30:00,38.0,33.3,30.39,WSW,248,1.6,1.8,83,0.00,,,0.00,WUHU216HW,2013-04-17 12:30:00,
2013-04-17 05:35:00,37.8,33.1,30.38,WSW,248,0.4,1.8,83,0.00,,,0.00,WUHU216HW,2013-04-17 12:35:00,
2013-04-17 05:40:00,37.6,33.0,30.38,WSW,248,1.1,2.5,83,0.00,,,0.00,WUHU216HW,2013-04-17 12:40:00,
2013-04-17 05:45:00,37.6,33.0,30.38,SSW,203,0.9,2.5,83,0.00,,,0.00,WUHU216HW,2013-04-17 12:45:00,
2013-04-17 05:50:00,37.6,33.0,30.39,West,270,2.0,2.2,83,0.00,,,0.00,WUHU216HW,2013-04-17 12:50:00,
2013-04-17 05:55:00,37.6,33.0,30.39,WSW,248,1.3,2.5,83,0.00,,,0.00,WUHU216HW,2013-04-17 12:55:00,
2013-04-17 06:00:00,37.6,33.2,30.39,WSW,248,1.1,2.5,84,0.00,,,0.00,WUHU216HW,2013-04-17 13:00:00,
2013-04-17 06:05:00,37.6,33.2,30.39,WSW,248,1.3,1.8,84,0.00,,,0.00,WUHU216HW,2013-04-17 13:05:00,
2013-04-17 06:10:00,37.4,33.0,30.40,WSW,248,1.3,1.8,84,0.00,,,0.00,WUHU216HW,2013-04-17 13:10:00,
2013-04-17 06:15:00,37.6,33.2,30.40,WSW,248,1.1,1.8,84,0.00,,,0.00,WUHU216HW,2013-04-17 13:15:00,
2013-04-17 06:20:00,37.6,33.2,30.40,WSW,248,1.1,1.8,84,0.00,,,0.00,WUHU216HW,2013-04-17 13:20:00,
2013-04-17 06:25:00,37.8,33.4,30.40,WSW,248,1.3,1.8,84,0.00,,,0.00,WUHU216HW,2013-04-17 13:25:00,
2013-04-17 06:30:00,37.8,33.4,30.40,WSW,248,1.1,1.6,84,0.00,,,0.00,WUHU216HW,2013-04-17 13:30:00,
2013-04-17 06:35:00,37.8,33.4,30.40,WSW,248,1.8,1.8,84,0.00,,,0.00,WUHU216HW,2013-04-17 13:35:00,
2013-04-17 06:40:00,37.8,33.4,30.41,WSW,248,1.8,2.5,84,0.00,,,0.00,WUHU216HW,2013-04-17 13:40:00,
2013-04-17 06:45:00,38.0,33.6,30.40,WSW,248,1.3,2.5,84,0.00,,,0.00,WUHU216HW,2013-04-17 13:45:00,
2013-04-17 06:50:00,38.2,33.8,30.41,WSW,248,0.9,2.0,84,0.00,,,0.00,WUHU216HW,2013-04-17 13:50:00,
2013-04-17 06:55:00,38.5,34.1,30.40,WSW,248,0.9,2.5,84,0.00,,,0.00,WUHU216HW,2013-04-17 13:55:00,
2013-04-17 07:00:00,38.9,34.5,30.41,WSW,248,0.7,2.5,84,0.00,,,0.00,WUHU216HW,2013-04-17 14:00:00,
2013-04-17 07:05:00,39.2,35.1,30.41,WSW,248,1.3,1.6,85,0.00,,,0.00,WUHU216HW,2013-04-17 14:05:00,
2013-04-17 07:10:00,39.6,35.5,30.41,WSW,248,0.7,1.6,85,0.00,,,0.00,WUHU216HW,2013-04-17 14:10:00,
2013-04-17 07:15:00,40.3,36.1,30.41,WSW,248,0.7,1.6,85,0.00,,,0.00,WUHU216HW,2013-04-17 14:15:00,
2013-04-17 07:20:00,40.7,36.5,30.41,SW,225,0.4,1.3,85,0.00,,,0.00,WUHU216HW,2013-04-17 14:20:00,
2013-04-17 07:25:00,41.0,36.8,30.41,WSW,248,1.1,1.6,85,0.00,,,0.00,WUHU216HW,2013-04-17 14:25:00,
2013-04-17 07:30:00,41.4,36.9,30.41,SW,225,1.3,1.6,84,0.00,,,0.00,WUHU216HW,2013-04-17 14:30:00,
2013-04-17 07:35:00,41.6,37.1,30.41,WSW,248,0.2,1.3,84,0.00,,,0.00,WUHU216HW,2013-04-17 14:35:00,
2013-04-17 07:40:00,41.8,37.5,30.41,WSW,248,0.0,1.3,85,0.00,,,0.00,WUHU216HW,2013-04-17 14:40:00,
2013-04-17 07:45:00,41.9,37.7,30.41,SW,225,0.9,2.0,85,0.00,,,0.00,WUHU216HW,2013-04-17 14:45:00,
2013-04-17 07:50:00,42.1,37.9,30.41,SE,135,0.2,2.0,85,0.00,,,0.00,WUHU216HW,2013-04-17 14:50:00,
2013-04-17 07:55:00,42.3,38.1,30.41,WSW,248,3.4,3.4,85,0.00,,,0.00,WUHU216HW,2013-04-17 14:55:00,
2013-04-17 08:00:00,42.3,38.1,30.41,WSW,248,4.0,4.0,85,0.00,,,0.00,WUHU216HW,2013-04-17 15:00:00,
2013-04-17 08:05:00,42.5,38.0,30.41,WSW,248,1.1,4.0,84,0.00,,,0.00,WUHU216HW,2013-04-17 15:05:00,
2013-04-17 08:10:00,42.7,38.2,30.41,SW,225,0.9,4.0,84,0.00,,,0.00,WUHU216HW,2013-04-17 15:10:00,
2013-04-17 08:15:00,42.7,38.2,30.41,WSW,248,1.3,3.4,84,0.00,,,0.00,WUHU216HW,2013-04-17 15:15:00,
2013-04-17 08:20:00,42.8,38.4,30.42,SW,225,2.5,3.4,84,0.00,,,0.00,WUHU216HW,2013-04-17 15:20:00,
2013-04-17 08:25:00,43.0,38.5,30.42,WSW,248,2.9,2.9,84,0.00,,,0.00,WUHU216HW,2013-04-17 15:25:00,
2013-04-17 08:30:00,43.4,38.9,30.42,SSE,158,1.3,2.9,84,0.00,,,0.00,WUHU216HW,2013-04-17 15:30:00,
2013-04-17 08:35:00,43.6,39.1,30.42,WSW,248,4.0,4.0,84,0.00,,,0.00,WUHU216HW,2013-04-17 15:35:00,
2013-04-17 08:40:00,43.6,38.7,30.42,WSW,248,4.0,4.0,83,0.00,,,0.00,WUHU216HW,2013-04-17 15:40:00,
2013-04-17 08:45:00,43.7,38.9,30.42,WSW,248,2.7,4.0,83,0.00,,,0.00,WUHU216HW,2013-04-17 15:45:00,
2013-04-17 08:50:00,43.9,38.8,30.42,WSW,248,2.7,5.1,82,0.00,,,0.00,WUHU216HW,2013-04-17 15:50:00,
2013-04-17 08:55:00,44.1,39.0,30.42,SSE,158,0.2,5.1,82,0.00,,,0.00,WUHU216HW,2013-04-17 15:55:00,
2013-04-17 09:00:00,44.6,39.2,30.42,SSE,158,3.4,5.4,81,0.00,,,0.00,WUHU216HW,2013-04-17 16:00:00,
2013-04-17 09:05:00,45.2,39.7,30.42,SW,225,2.7,5.8,81,0.00,,,0.00,WUHU216HW,2013-04-17 16:05:00,
2013-04-17 09:10:00,45.9,40.4,30.42,SW,225,3.8,6.7,81,0.00,,,0.00,WUHU216HW,2013-04-17 16:10:00,
2013-04-17 09:15:00,46.4,40.7,30.42,SSW,203,2.5,8.3,80,0.00,,,0.00,WUHU216HW,2013-04-17 16:15:00,
2013-04-17 09:20:00,46.8,40.7,30.42,SW,225,1.6,8.3,79,0.00,,,0.00,WUHU216HW,2013-04-17 16:20:00,
2013-04-17 09:25:00,46.8,40.3,30.42,SSE,158,2.2,5.4,78,0.00,,,0.00,WUHU216HW,2013-04-17 16:25:00,
2013-04-17 09:30:00,47.2,40.7,30.42,WSW,248,1.8,5.4,78,0.00,,,0.00,WUHU216HW,2013-04-17 16:30:00,
2013-04-17 09:35:00,47.7,41.1,30.42,SW,225,6.5,6.5,78,0.00,,,0.00,WUHU216HW,2013-04-17 16:35:00,
2013-04-17 09:40:00,47.9,41.3,30.42,WSW,248,4.7,6.5,78,0.00,,,0.00,WUHU216HW,2013-04-17 16:40:00,
2013-04-17 09:45:00,47.9,40.6,30.42,SSW,203,4.0,6.5,76,0.00,,,0.00,WUHU216HW,2013-04-17 16:45:00,
2013-04-17 09:50:00,47.9,41.0,30.42,SSW,203,1.6,5.6,77,0.00,,,0.00,WUHU216HW,2013-04-17 16:50:00,
2013-04-17 09:55:00,48.2,41.3,30.42,SW,225,2.7,4.3,77,0.00,,,0.00,WUHU216HW,2013-04-17 16:55:00,
2013-04-17 10:00:00,48.6,41.3,30.42,WSW,248,3.6,6.3,76,0.00,,,0.00,WUHU216HW,2013-04-17 17:00:00,
2013-04-17 10:05:00,48.6,41.3,30.42,SW,225,2.7,6.3,76,0.00,,,0.00,WUHU216HW,2013-04-17 17:05:00,
2013-04-17 10:10:00,48.8,41.5,30.42,SW,225,4.3,4.9,76,0.00,,,0.00,WUHU216HW,2013-04-17 17:10:00,
2013-04-17 10:15:00,49.0,41.3,30.42,SSW,203,2.5,6.0,75,0.00,,,0.00,WUHU216HW,2013-04-17 17:15:00,
2013-04-17 10:20:00,49.1,41.5,30.43,South,180,2.7,6.0,75,0.00,,,0.00,WUHU216HW,2013-04-17 17:20:00,
2013-04-17 10:25:00,49.9,42.2,30.42,South,180,2.2,4.0,75,0.00,,,0.00,WUHU216HW,2013-04-17 17:25:00,
2013-04-17 10:30:00,50.8,42.8,30.42,SE,135,2.7,3.4,74,0.00,,,0.00,WUHU216HW,2013-04-17 17:30:00,
2013-04-17 10:35:00,51.1,42.5,30.42,SW,225,1.1,4.3,72,0.00,,,0.00,WUHU216HW,2013-04-17 17:35:00,
2013-04-17 10:40:00,51.5,42.9,30.42,SE,135,1.6,4.3,72,0.00,,,0.00,WUHU216HW,2013-04-17 17:40:00,
2013-04-17 10:45:00,51.5,42.5,30.42,SSE,158,1.1,4.0,71,0.00,,,0.00,WUHU216HW,2013-04-17 17:45:00,
2013-04-17 10:50:00,51.7,42.7,30.42,SE,135,3.4,4.7,71,0.00,,,0.00,WUHU216HW,2013-04-17 17:50:00,
2013-04-17 10:55:00,51.8,42.9,30.42,ESE,113,1.8,4.7,71,0.00,,,0.00,WUHU216HW,2013-04-17 17:55:00,
2013-04-17 10:59:00,52.0,43.0,30.42,West,270,0.9,4.0,71,0.00,,,0.00,WUHU216HW,2013-04-17 17:59:00,
2013-04-17 11:05:00,52.2,42.4,30.42,WSW,248,1.8,4.0,69,0.00,,,0.00,WUHU216HW,2013-04-17 18:05:00,
2013-04-17 11:09:00,52.2,42.9,30.42,SSE,158,3.4,3.4,70,0.00,,,0.00,WUHU216HW,2013-04-17 18:09:00,
2013-04-17 11:14:00,52.4,42.6,30.42,SE,135,1.8,4.0,69,0.00,,,0.00,WUHU216HW,2013-04-17 18:14:00,
2013-04-17 11:19:00,52.7,42.9,30.42,WSW,248,5.1,6.9,69,0.00,,,0.00,WUHU216HW,2013-04-17 18:19:00,
2013-04-17 11:24:00,52.9,43.0,30.42,South,180,2.0,6.9,69,0.00,,,0.00,WUHU216HW,2013-04-17 18:24:00,
2013-04-17 11:29:00,53.6,44.1,30.42,SW,225,4.7,5.8,70,0.00,,,0.00,WUHU216HW,2013-04-17 18:29:00,
2013-04-17 11:34:00,54.4,44.5,30.42,WSW,248,2.5,6.0,69,0.00,,,0.00,WUHU216HW,2013-04-17 18:34:00,
2013-04-17 11:39:00,55.1,45.1,30.42,SE,135,0.7,6.0,69,0.00,,,0.00,WUHU216HW,2013-04-17 18:39:00,
2013-04-17 11:44:00,55.6,45.3,30.42,WSW,248,4.0,4.5,68,0.00,,,0.00,WUHU216HW,2013-04-17 18:44:00,
2013-04-17 11:49:00,56.2,44.9,30.42,SSW,203,8.9,8.9,66,0.00,,,0.00,WUHU216HW,2013-04-17 18:49:00,
2013-04-17 11:54:00,56.0,44.4,30.42,SSW,203,1.1,8.9,65,0.00,,,0.00,WUHU216HW,2013-04-17 18:54:00,
2013-04-17 11:59:00,56.5,44.8,30.42,SW,225,3.4,8.9,65,0.00,,,0.00,WUHU216HW,2013-04-17 18:59:00,
2013-04-17 12:04:00,56.9,45.2,30.42,NNW,338,0.9,6.3,65,0.00,,,0.00,WUHU216HW,2013-04-17 19:04:00,
2013-04-17 12:09:00,57.2,44.7,30.42,WNW,293,1.8,4.7,63,0.00,,,0.00,WUHU216HW,2013-04-17 19:09:00,
2013-04-17 12:14:00,57.6,45.1,30.41,SE,135,1.6,4.0,63,0.00,,,0.00,WUHU216HW,2013-04-17 19:14:00,
2013-04-17 12:19:00,57.6,44.6,30.41,SE,135,2.7,3.8,62,0.00,,,0.00,WUHU216HW,2013-04-17 19:19:00,
2013-04-17 12:24:00,57.8,44.5,30.41,ENE,68,1.3,3.8,61,0.00,,,0.00,WUHU216HW,2013-04-17 19:24:00,
2013-04-17 12:29:00,58.0,45.0,30.41,ESE,113,1.3,3.4,62,0.00,,,0.00,WUHU216HW,2013-04-17 19:29:00,
2013-04-17 12:34:00,58.1,44.8,30.41,North,0,3.4,3.4,61,0.00,,,0.00,WUHU216HW,2013-04-17 19:34:00,
2013-04-17 12:39:00,58.5,44.2,30.41,ESE,113,2.0,4.7,59,0.00,,,0.00,WUHU216HW,2013-04-17 19:39:00,
2013-04-17 12:44:00,58.3,44.1,30.41,NNE,23,2.0,6.0,59,0.00,,,0.00,WUHU216HW,2013-04-17 19:44:00,
2013-04-17 12:49:00,58.3,43.6,30.41,SE,135,1.8,6.0,58,0.00,,,0.00,WUHU216HW,2013-04-17 19:49:00,
2013-04-17 12:54:00,58.1,43.9,30.41,NW,315,1.1,3.6,59,0.00,,,0.00,WUHU216HW,2013-04-17 19:54:00,
2013-04-17 12:59:00,58.5,44.7,30.41,SSE,158,1.1,2.9,60,0.00,,,0.00,WUHU216HW,2013-04-17 19:59:00,
2013-04-17 13:04:00,59.0,44.3,30.41,ENE,68,0.4,4.0,58,0.00,,,0.00,WUHU216HW,2013-04-17 20:04:00,
2013-04-17 13:09:00,59.4,44.7,30.41,WSW,248,1.6,4.0,58,0.00,,,0.00,WUHU216HW,2013-04-17 20:09:00,
2013-04-17 13:14:00,59.6,45.3,30.40,West,270,2.7,4.0,59,0.00,,,0.00,WUHU216HW,2013-04-17 20:14:00,
2013-04-17 13:19:00,59.4,43.7,30.40,SE,135,1.8,5.8,56,0.00,,,0.00,WUHU216HW,2013-04-17 20:19:00,
2013-04-17 13:24:00,59.4,44.1,30.40,SE,135,1.1,5.8,57,0.00,,,0.00,WUHU216HW,2013-04-17 20:24:00,
2013-04-17 13:29:00,59.8,44.5,30.40,ESE,113,1.3,3.6,57,0.00,,,0.00,WUHU216HW,2013-04-17 20:29:00,
2013-04-17 13:34:00,60.1,43.4,30.40,SSW,203,4.7,4.9,54,0.00,,,0.00,WUHU216HW,2013-04-17 20:34:00,
2013-04-17 13:39:00,60.1,43.8,30.40,SSE,158,2.0,5.6,55,0.00,,,0.00,WUHU216HW,2013-04-17 20:39:00,
2013-04-17 13:44:00,60.1,43.8,30.40,SE,135,3.1,5.6,55,0.00,,,0.00,WUHU216HW,2013-04-17 20:44:00,
2013-04-17 13:49:00,60.1,42.4,30.40,ESE,113,1.8,4.0,52,0.00,,,0.00,WUHU216HW,2013-04-17 20:49:00,
2013-04-17 13:54:00,60.1,41.9,30.39,NE,45,1.1,3.6,51,0.00,,,0.00,WUHU216HW,2013-04-17 20:54:00,
2013-04-17 13:59:00,60.5,42.8,30.39,SW,225,3.1,3.8,52,0.00,,,0.00,WUHU216HW,2013-04-17 20:59:00,
2013-04-17 14:04:00,60.7,42.5,30.39,SE,135,2.2,5.4,51,0.00,,,0.00,WUHU216HW,2013-04-17 21:04:00,
2013-04-17 14:10:00,60.8,42.6,30.38,SSE,158,1.8,5.4,51,0.00,,,0.00,WUHU216HW,2013-04-17 21:10:00,
2013-04-17 14:14:00,61.2,42.9,30.39,SSE,158,3.4,4.5,51,0.00,,,0.00,WUHU216HW,2013-04-17 21:14:00,
2013-04-17 14:19:00,60.8,43.1,30.39,SE,135,3.8,4.5,52,0.00,,,0.00,WUHU216HW,2013-04-17 21:19:00,
2013-04-17 14:24:00,60.5,41.8,30.38,SW,225,2.5,5.4,50,0.00,,,0.00,WUHU216HW,2013-04-17 21:24:00,
2013-04-17 14:29:00,60.5,43.2,30.38,WSW,248,0.7,5.4,53,0.00,,,0.00,WUHU216HW,2013-04-17 21:29:00,
2013-04-17 14:34:00,60.8,44.1,30.38,WSW,248,2.0,4.0,54,0.00,,,0.00,WUHU216HW,2013-04-17 21:34:00,
2013-04-17 14:39:00,61.2,44.4,30.38,WSW,248,1.8,4.0,54,0.00,,,0.00,WUHU216HW,2013-04-17 21:39:00,
2013-04-17 14:45:00,61.0,43.7,30.38,SSW,203,1.3,6.9,53,0.00,,,0.00,WUHU216HW,2013-04-17 21:45:00,
2013-04-17 14:49:00,60.8,43.1,30.38,NW,315,5.4,6.9,52,0.00,,,0.00,WUHU216HW,2013-04-17 21:49:00,
2013-04-17 14:54:00,60.3,42.6,30.38,West,270,5.4,6.9,52,0.00,,,0.00,WUHU216HW,2013-04-17 21:54:00,
2013-04-17 14:59:00,60.1,42.9,30.38,SE,135,2.2,6.9,53,0.00,,,0.00,WUHU216HW,2013-04-17 21:59:00,
2013-04-17 15:04:00,60.3,43.1,30.38,WSW,248,3.4,5.8,53,0.00,,,0.00,WUHU216HW,2013-04-17 22:04:00,
2013-04-17 15:09:00,60.3,43.1,30.38,West,270,2.5,6.9,53,0.00,,,0.00,WUHU216HW,2013-04-17 22:09:00,
2013-04-17 15:15:00,60.3,43.6,30.38,WSW,248,2.7,6.9,54,0.00,,,0.00,WUHU216HW,2013-04-17 22:15:00,
2013-04-17 15:19:00,60.1,42.9,30.38,South,180,4.0,7.4,53,0.00,,,0.00,WUHU216HW,2013-04-17 22:19:00,
2013-04-17 15:24:00,60.1,43.4,30.38,WNW,293,1.1,7.4,54,0.00,,,0.00,WUHU216HW,2013-04-17 22:24:00,
2013-04-17 15:29:00,60.3,43.1,30.38,SE,135,2.2,12.8,53,0.00,,,0.00,WUHU216HW,2013-04-17 22:29:00,
2013-04-17 15:34:00,60.3,43.6,30.38,SW,225,2.5,12.8,54,0.00,,,0.00,WUHU216HW,2013-04-17 22:34:00,
2013-04-17 15:39:00,60.1,42.9,30.37,SSW,203,2.7,5.4,53,0.00,,,0.00,WUHU216HW,2013-04-17 22:39:00,
2013-04-17 15:44:00,59.9,43.2,30.38,SE,135,2.2,5.4,54,0.00,,,0.00,WUHU216HW,2013-04-17 22:44:00,
2013-04-17 15:49:00,60.1,42.9,30.37,SW,225,2.5,6.3,53,0.00,,,0.00,WUHU216HW,2013-04-17 22:49:00,
2013-04-17 15:54:00,59.8,42.1,30.37,SW,225,4.9,6.7,52,0.00,,,0.00,WUHU216HW,2013-04-17 22:54:00,
2013-04-17 15:59:00,59.6,42.4,30.37,SSE,158,1.8,6.7,53,0.00,,,0.00,WUHU216HW,2013-04-17 22:59:00,
2013-04-17 16:04:00,59.6,42.0,30.37,SW,225,3.8,6.0,52,0.00,,,0.00,WUHU216HW,2013-04-17 23:04:00,
2013-04-17 16:09:00,59.4,41.3,30.37,SW,225,2.0,8.5,51,0.00,,,0.00,WUHU216HW,2013-04-17 23:09:00,
2013-04-17 16:14:00,59.2,41.1,30.37,SW,225,3.6,8.5,51,0.00,,,0.00,WUHU216HW,2013-04-17 23:14:00,
2013-04-17 16:19:00,58.9,41.3,30.37,WNW,293,1.8,8.7,52,0.00,,,0.00,WUHU216HW,2013-04-17 23:19:00,
2013-04-17 16:24:00,58.7,42.0,30.37,SSW,203,3.4,9.2,54,0.00,,,0.00,WUHU216HW,2013-04-17 23:24:00,
2013-04-17 16:29:00,58.5,41.9,30.37,SSW,203,5.6,9.2,54,0.00,,,0.00,WUHU216HW,2013-04-17 23:29:00,
2013-04-17 16:34:00,58.0,41.9,30.37,WSW,248,8.1,8.5,55,0.00,,,0.00,WUHU216HW,2013-04-17 23:34:00,
2013-04-17 16:39:00,57.6,41.6,30.37,SW,225,3.4,8.1,55,0.00,,,0.00,WUHU216HW,2013-04-17 23:39:00,
2013-04-17 16:44:00,57.2,41.7,30.37,SSE,158,3.1,8.1,56,0.00,,,0.00,WUHU216HW,2013-04-17 23:44:00,
2013-04-17 16:49:00,56.9,41.8,30.37,SW,225,2.5,6.9,57,0.00,,,0.00,WUHU216HW,2013-04-17 23:49:00,
2013-04-17 16:54:00,56.7,41.6,30.37,WSW,248,4.7,6.5,57,0.00,,,0.00,WUHU216HW,2013-04-17 23:54:00,
2013-04-17 16:59:00,56.7,41.6,30.37,SW,225,4.0,8.9,57,0.00,,,0.00,WUHU216HW,2013-04-17 23:59:00,
2013-04-17 17:04:00,56.7,42.1,30.37,West,270,2.5,8.9,58,0.00,,,0.00,WUHU216HW,2013-04-18 00:04:00,
2013-04-17 17:09:00,56.5,42.0,30.37,SW,225,6.0,10.3,58,0.00,,,0.00,WUHU216HW,2013-04-18 00:09:00,
2013-04-17 17:14:00,56.5,42.4,30.37,SSW,203,2.2,10.3,59,0.00,,,0.00,WUHU216HW,2013-04-18 00:14:00,
2013-04-17 17:19:00,56.3,42.7,30.37,West,270,4.0,6.9,60,0.00,,,0.00,WUHU216HW,2013-04-18 00:19:00,
2013-04-17 17:24:00,56.2,42.5,30.37,SSE,158,3.1,9.2,60,0.00,,,0.00,WUHU216HW,2013-04-18 00:24:00,
2013-04-17 17:29:00,56.0,42.3,30.37,SSW,203,1.8,9.2,60,0.00,,,0.00,WUHU216HW,2013-04-18 00:29:00,
2013-04-17 17:34:00,55.8,42.6,30.37,West,270,2.2,6.0,61,0.00,,,0.00,WUHU216HW,2013-04-18 00:34:00,
2013-04-17 17:39:00,55.6,42.4,30.37,SSW,203,2.5,6.5,61,0.00,,,0.00,WUHU216HW,2013-04-18 00:39:00,
2013-04-17 17:44:00,55.6,42.4,30.38,West,270,2.5,6.5,61,0.00,,,0.00,WUHU216HW,2013-04-18 00:44:00,
2013-04-17 17:49:00,55.4,42.2,30.37,SW,225,4.3,6.3,61,0.00,,,0.00,WUHU216HW,2013-04-18 00:49:00,
2013-04-17 17:54:00,55.4,42.6,30.37,SW,225,2.9,6.3,62,0.00,,,0.00,WUHU216HW,2013-04-18 00:54:00,
2013-04-17 17:59:00,55.6,42.8,30.37,WSW,248,0.7,6.3,62,0.00,,,0.00,WUHU216HW,2013-04-18 00:59:00,
2013-04-17 18:04:00,55.4,43.0,30.37,SSE,158,4.3,6.3,63,0.00,,,0.00,WUHU216HW,2013-04-18 01:04:00,
2013-04-17 18:09:00,55.6,43.2,30.37,WSW,248,4.5,6.0,63,0.00,,,0.00,WUHU216HW,2013-04-18 01:09:00,
2013-04-17 18:14:00,55.4,43.0,30.37,South,180,1.1,6.3,63,0.00,,,0.00,WUHU216HW,2013-04-18 01:14:00,
2013-04-17 18:19:00,55.4,43.4,30.37,SSW,203,1.8,6.3,64,0.00,,,0.00,WUHU216HW,2013-04-18 01:19:00,
2013-04-17 18:24:00,55.4,43.4,30.37,WSW,248,1.1,3.4,64,0.00,,,0.00,WUHU216HW,2013-04-18 01:24:00,
2013-04-17 18:29:00,55.4,43.4,30.37,SW,225,2.5,6.9,64,0.00,,,0.00,WUHU216HW,2013-04-18 01:29:00,
2013-04-17 18:34:00,55.3,43.3,30.37,SW,225,2.2,6.9,64,0.00,,,0.00,WUHU216HW,2013-04-18 01:34:00,
2013-04-17 18:39:00,55.4,43.4,30.37,WSW,248,2.5,4.7,64,0.00,,,0.00,WUHU216HW,2013-04-18 01:39:00,
2013-04-17 18:44:00,55.3,43.3,30.37,South,180,1.6,4.7,64,0.00,,,0.00,WUHU216HW,2013-04-18 01:44:00,
2013-04-17 18:49:00,55.3,43.3,30.37,WSW,248,0.9,4.3,64,0.00,,,0.00,WUHU216HW,2013-04-18 01:49:00,
2013-04-17 18:54:00,55.1,43.1,30.37,SE,135,0.2,3.1,64,0.00,,,0.00,WUHU216HW,2013-04-18 01:54:00,
2013-04-17 18:59:00,55.1,43.5,30.37,SW,225,3.4,3.4,65,0.00,,,0.00,WUHU216HW,2013-04-18 01:59:00,
2013-04-17 19:04:00,55.1,43.5,30.37,WSW,248,4.5,4.9,65,0.00,,,0.00,WUHU216HW,2013-04-18 02:04:00,
2013-04-17 19:09:00,54.7,42.8,30.37,WSW,248,0.7,7.8,64,0.00,,,0.00,WUHU216HW,2013-04-18 02:09:00,
2013-04-17 19:14:00,54.4,42.4,30.37,WSW,248,5.4,7.8,64,0.00,,,0.00,WUHU216HW,2013-04-18 02:14:00,
2013-04-17 19:19:00,54.2,42.2,30.37,WSW,248,1.8,7.6,64,0.00,,,0.00,WUHU216HW,2013-04-18 02:19:00,
2013-04-17 19:24:00,54.0,42.0,30.37,SW,225,3.4,5.4,64,0.00,,,0.00,WUHU216HW,2013-04-18 02:24:00,
2013-04-17 19:29:00,53.8,41.9,30.37,WNW,293,4.5,6.0,64,0.00,,,0.00,WUHU216HW,2013-04-18 02:29:00,
2013-04-17 19:34:00,53.6,41.8,30.37,WSW,248,5.1,9.2,64,0.00,,,0.00,WUHU216HW,2013-04-18 02:34:00,
2013-04-17 19:39:00,53.5,41.6,30.37,SSW,203,2.9,9.2,64,0.00,,,0.00,WUHU216HW,2013-04-18 02:39:00,
2013-04-17 19:44:00,53.1,41.2,30.37,SW,225,4.0,9.2,64,0.00,,,0.00,WUHU216HW,2013-04-18 02:44:00,
2013-04-17 19:49:00,52.9,41.1,30.37,SSE,158,4.0,7.6,64,0.00,,,0.00,WUHU216HW,2013-04-18 02:49:00,
2013-04-17 19:54:00,52.6,40.3,30.38,SSW,203,1.6,8.3,63,0.00,,,0.00,WUHU216HW,2013-04-18 02:54:00,
2013-04-17 19:59:00,52.2,40.0,30.38,SSE,158,1.8,8.5,63,0.00,,,0.00,WUHU216HW,2013-04-18 02:59:00,
2013-04-17 20:04:00,52.0,39.8,30.38,WSW,248,2.5,8.5,63,0.00,,,0.00,WUHU216HW,2013-04-18 03:04:00,
2013-04-17 20:09:00,51.8,40.0,30.38,WSW,248,4.0,6.9,64,0.00,,,0.00,WUHU216HW,2013-04-18 03:09:00,
2013-04-17 20:14:00,51.5,39.2,30.38,WSW,248,5.4,7.6,63,0.00,,,0.00,WUHU216HW,2013-04-18 03:14:00,
2013-04-17 20:19:00,51.1,38.9,30.38,WSW,248,4.3,7.6,63,0.00,,,0.00,WUHU216HW,2013-04-18 03:19:00,
2013-04-17 20:24:00,50.9,39.2,30.38,SW,225,0.2,7.4,64,0.00,,,0.00,WUHU216HW,2013-04-18 03:24:00,
2013-04-17 20:29:00,50.8,39.0,30.38,SSW,203,4.0,4.3,64,0.00,,,0.00,WUHU216HW,2013-04-18 03:29:00,
2013-04-17 20:34:00,50.6,38.8,30.38,SSW,203,2.7,9.4,64,0.00,,,0.00,WUHU216HW,2013-04-18 03:34:00,
2013-04-17 20:39:00,50.2,38.4,30.39,WSW,248,1.8,9.4,64,0.00,,,0.00,WUHU216HW,2013-04-18 03:39:00,
2013-04-17 20:44:00,50.0,38.4,30.39,SW,225,3.1,9.6,64,0.00,,,0.00,WUHU216HW,2013-04-18 03:44:00,
2013-04-17 20:49:00,49.9,38.2,30.39,WSW,248,1.6,9.6,64,0.00,,,0.00,WUHU216HW,2013-04-18 03:49:00,
2013-04-17 20:54:00,49.7,38.0,30.40,SSE,158,1.3,4.7,64,0.00,,,0.00,WUHU216HW,2013-04-18 03:54:00,
2013-04-17 20:59:00,49.5,38.2,30.40,SE,135,0.7,4.7,65,0.00,,,0.00,WUHU216HW,2013-04-18 03:59:00,
2013-04-17 21:01:00,49.5,38.2,30.40,SE,135,0.0,4.7,65,0.00,,,0.00,WUHU216HW,2013-04-18 04:01:00,
2013-04-17 21:02:00,49.5,38.2,30.40,SSW,203,0.0,4.0,65,0.00,,,0.00,WUHU216HW,2013-04-18 04:02:00,
2013-04-17 21:07:00,49.3,38.0,30.40,NE,45,0.7,2.7,65,0.00,,,0.00,WUHU216HW,2013-04-18 04:07:00,
2013-04-17 21:12:00,49.1,37.8,30.40,WSW,248,0.2,2.7,65,0.00,,,0.00,WUHU216HW,2013-04-18 04:12:00,
2013-04-17 21:17:00,49.0,38.1,30.41,NNW,338,0.0,1.1,66,0.00,,,0.00,WUHU216HW,2013-04-18 04:17:00,
2013-04-17 21:22:00,48.8,37.9,30.41,NNW,338,0.0,0.7,66,0.00,,,0.00,WUHU216HW,2013-04-18 04:22:00,
2013-04-17 21:27:00,48.8,37.9,30.41,NNW,338,0.0,0.7,66,0.00,,,0.00,WUHU216HW,2013-04-18 04:27:00,
2013-04-17 21:32:00,48.6,38.1,30.41,WSW,248,0.2,1.8,67,0.00,,,0.00,WUHU216HW,2013-04-18 04:32:00,
2013-04-17 21:37:00,48.1,37.6,30.41,WSW,248,1.8,2.5,67,0.00,,,0.00,WUHU216HW,2013-04-18 04:37:00,
2013-04-17 21:42:00,47.9,37.8,30.41,WSW,248,1.1,2.5,68,0.00,,,0.00,WUHU216HW,2013-04-18 04:42:00,
2013-04-17 21:47:00,47.7,37.6,30.41,SW,225,0.4,1.8,68,0.00,,,0.00,WUHU216HW,2013-04-18 04:47:00,
2013-04-17 21:52:00,47.5,37.4,30.41,SW,225,0.9,1.6,68,0.00,,,0.00,WUHU216HW,2013-04-18 04:52:00,
2013-04-17 21:57:00,47.2,37.5,30.41,SW,225,0.0,1.6,69,0.00,,,0.00,WUHU216HW,2013-04-18 04:57:00,
2013-04-17 22:02:00,47.0,37.4,30.41,WSW,248,0.0,1.1,69,0.00,,,0.00,WUHU216HW,2013-04-18 05:02:00,
2013-04-17 22:07:00,46.8,37.2,30.41,NNW,338,0.4,1.1,69,0.00,,,0.00,WUHU216HW,2013-04-18 05:07:00,
2013-04-17 22:12:00,46.6,37.5,30.41,SSE,158,1.8,1.8,70,0.00,,,0.00,WUHU216HW,2013-04-18 05:12:00,
2013-04-17 22:17:00,46.4,37.3,30.41,WSW,248,0.0,1.8,70,0.00,,,0.00,WUHU216HW,2013-04-18 05:17:00,
2013-04-17 22:22:00,46.3,37.5,30.41,WSW,248,1.1,1.8,71,0.00,,,0.00,WUHU216HW,2013-04-18 05:22:00,
2013-04-17 22:27:00,45.9,37.1,30.41,WSW,248,0.4,2.5,71,0.00,,,0.00,WUHU216HW,2013-04-18 05:27:00,
2013-04-17 22:32:00,45.7,37.3,30.41,SW,225,0.2,2.5,72,0.00,,,0.00,WUHU216HW,2013-04-18 05:32:00,
2013-04-17 22:37:00,45.5,37.1,30.41,SW,225,0.0,2.0,72,0.00,,,0.00,WUHU216HW,2013-04-18 05:37:00,
2013-04-17 22:42:00,45.4,36.9,30.41,SSW,203,0.0,1.3,72,0.00,,,0.00,WUHU216HW,2013-04-18 05:42:00,
2013-04-17 22:47:00,45.2,37.0,30.41,SW,225,1.1,1.3,73,0.00,,,0.00,WUHU216HW,2013-04-18 05:47:00,
2013-04-17 22:52:00,45.2,37.0,30.41,SW,225,0.9,1.6,73,0.00,,,0.00,WUHU216HW,2013-04-18 05:52:00,
2013-04-17 22:57:00,45.0,36.8,30.41,SW,225,0.7,1.6,73,0.00,,,0.00,WUHU216HW,2013-04-18 05:57:00,
2013-04-17 23:02:00,44.8,37.0,30.41,SW,225,1.1,1.6,74,0.00,,,0.00,WUHU216HW,2013-04-18 06:02:00,
2013-04-17 23:07:00,44.6,36.8,30.41,SSW,203,1.1,1.1,74,0.00,,,0.00,WUHU216HW,2013-04-18 06:07:00,
2013-04-17 23:12:00,44.6,36.8,30.41,WSW,248,0.9,1.1,74,0.00,,,0.00,WUHU216HW,2013-04-18 06:12:00,
2013-04-17 23:17:00,44.5,36.6,30.41,SW,225,0.4,1.8,74,0.00,,,0.00,WUHU216HW,2013-04-18 06:17:00,
2013-04-17 23:22:00,44.3,36.5,30.41,SW,225,0.2,1.8,74,0.00,,,0.00,WUHU216HW,2013-04-18 06:22:00,
2013-04-17 23:27:00,43.9,36.2,30.41,SW,225,0.9,1.3,74,0.00,,,0.00,WUHU216HW,2013-04-18 06:27:00,
2013-04-17 23:32:00,43.9,36.2,30.41,SW,225,0.0,1.3,74,0.00,,,0.00,WUHU216HW,2013-04-18 06:32:00,
2013-04-17 23:37:00,43.7,36.0,30.41,SW,225,2.2,2.2,74,0.00,,,0.00,WUHU216HW,2013-04-18 06:37:00,
2013-04-17 23:42:00,43.6,35.8,30.41,SW,225,2.0,2.5,74,0.00,,,0.00,WUHU216HW,2013-04-18 06:42:00,
2013-04-17 23:47:00,43.4,36.0,30.41,SW,225,1.1,2.5,75,0.00,,,0.00,WUHU216HW,2013-04-18 06:47:00,
2013-04-17 23:52:00,43.2,35.8,30.41,SSW,203,0.9,2.0,75,0.00,,,0.00,WUHU216HW,2013-04-18 06:52:00,
2013-04-17 23:57:00,43.2,35.8,30.41,SW,225,1.1,2.5,75,0.00,,,0.00,WUHU216HW,2013-04-18 06:57:00,